Weather in Makaryata

Russia / Kostroma Oblast     59°09′08″N   46°38′24″E
В апреле 2022 года жителям России запретили посещать сайт meteo.paraplan.net по решению Генеральной прокуратуры. Аудитория сайта уменьшилась в 10 раз. Владельцы сайта не видят смысла в поддержке погодного сервера в таких условиях. Сайт будет закрыт в октябре.
temp.,
°C
wind,
m/s
gust,
m/s
humid.,
%
clouds,
%
prec.,
mm/h
press.,
hPa
HPBL,
m
3 october, mon
mon300:00+9ssw279265 0.0 1008335
03:00+7ssw239732 0.0 101064
06:00+7se1195100 0.0 101127
09:00+10e2484100 0.0 1011197
12:00+11e3895100 0.0 1011327
15:00+13ese389799 0.8 1011375
18:00+13sse41390100 0.0 1012502
21:00+11sse41484100 0.0 1013571
4 october, tue
tue400:00+11sse51380100 0.0 1015654
03:00+11sse41184100 0.0 1016633
06:00+10sse3108798 0.0 1017369
09:00+12sse498577 0.0 1019594
12:00+13s4775100 0.0 10201036
15:00+13sse4875100 0.1 10201011
18:00+11sse4118589 0.0 1021530
21:00+9sse41290100 0.0 1020446
5 october, wed
wed500:00+9se41087100 0.0 1020469
03:00+8se41082100 0.0 1020475
06:00+9sse4991100 0.0 1018724
09:00+9sse4108369 0.0 1018686
12:00+10sse41188100 0.3 1017604
15:00+9se51187100 0.3 1017682
18:00+8se51293100 0.6 1016684
21:00+9sse3896100 1.9 1014582
6 october, thu
thu600:00+9s2496100 5.1 1012267
03:00+8sse2693100 9.3 1012412
06:00+7s2592100 0.1 1012355
09:00+7s2592100 0.7 1012420
12:00+8s2385100 0.9 1012489
15:00+7s2390100 1.1 1012346
18:00+6sse2396100 0.1 1012133
21:00+7sw2496100 0.2 1011159
7 october, fri
fri700:00+4sw38965 0.1 1010250
03:00+4s31096100 0.1 1008336
06:00+5ssw41195100 2.4 1006723
09:00+6wsw41094100 2.9 1005944
12:00+8wsw41088100 0.0 1005811
15:00+9w5108086 0.5 1005953
18:00+7w498899 0.3 1006908
21:00+8w3993100 1.1 1007691